This is the latest recevied weather packets stored in our database for station/object R2AJV-13. If no packets are shown the sender has not sent any weather packets the latest 10 day(s).
| Time | Temp. | Humidity | Pressure | Rain* | Wind** | Luminosity | Snow |
|---|---|---|---|---|---|---|---|
| 1788321623 | 16.11° C | 99% | 995.5 hPa | 0 mm | - | - | - |
| 1788320719 | 16.11° C | 99% | 995.5 hPa | 0 mm | - | - | - |
| 1788319869 | 16.11° C | 99% | 995.4 hPa | 0 mm | - | - | - |
| 1788318957 | 16.11° C | 99% | 995.3 hPa | 0 mm | - | - | - |
| 1788318048 | 16.11° C | 99% | 995.1 hPa | 0.25 mm | - | - | - |
| 1788317136 | 16.11° C | 99% | 995 hPa | 0.51 mm | - | - | - |
| 1788316232 | 16.11° C | 99% | 994.9 hPa | 1.27 mm | - | - | - |
| 1788315321 | 16.11° C | 99% | 994.9 hPa | 1.27 mm | - | - | - |
| 1788314471 | 16.11° C | 99% | 995 hPa | 1.02 mm | - | - | - |
| 1788313561 | 16.11° C | 99% | 995 hPa | 0.51 mm | - | - | - |
| 1788312655 | 16.11° C | 98% | 994.9 hPa | 0 mm | - | - | - |
| 1788311745 | 16.11° C | 96% | 995.1 hPa | 0 mm | - | - | - |
| 1788310861 | 16.11° C | 97% | 995.1 hPa | 0 mm | - | - | - |
| 1788309955 | 16.11° C | 97% | 995 hPa | 0 mm | - | - | - |
| 1788309045 | 16.11° C | 96% | 995.2 hPa | 0 mm | - | - | - |
| 1788308135 | 16.11° C | 96% | 995.1 hPa | 0 mm | - | - | - |
| 1788306319 | 16.11° C | 96% | 995.3 hPa | 0 mm | - | - | - |
| 1788305468 | 16.11° C | 96% | 995.5 hPa | 0 mm | - | - | - |
| 1788304558 | 16.11° C | 96% | 995.6 hPa | 0 mm | - | - | - |
| 1788303647 | 16.11° C | 95% | 995.7 hPa | 0 mm | - | - | - |
| 1788302737 | 16.11° C | 95% | 995.8 hPa | 0 mm | - | - | - |
| 1788301831 | 16.67° C | 94% | 995.9 hPa | 0 mm | - | - | - |
| 1788300921 | 16.67° C | 95% | 996.1 hPa | 0 mm | - | - | - |
| 1788300071 | 16.11° C | 96% | 996.2 hPa | 0 mm | - | - | - |
| 1788299159 | 16.11° C | 97% | 996.2 hPa | 0 mm | - | - | - |
* Rain latest hour (hover to see other rain measurements)
** Current wind speed in m/s (hover to see current wind gust speed)